This is the latest recevied weather packets stored in our database for station/object N1ICS-1. If no packets are shown the sender has not sent any weather packets the latest 10 day(s).
| Time | Temp. | Humidity | Pressure | Rain* | Wind** | Luminosity | Snow |
|---|---|---|---|---|---|---|---|
| 1778053802 | 5.56° C | 99% | 1011.5 hPa | 0 mm | - | 0 W/m² | - |
| 1778053502 | 5.56° C | 99% | 1011.6 hPa | 0 mm | - | 0 W/m² | - |
| 1778053202 | 5.56° C | 99% | 1011.2 hPa | 0 mm | - | 0 W/m² | - |
| 1778052902 | 5.56° C | 99% | 1011 hPa | 0 mm | - | 0 W/m² | - |
| 1778052602 | 5.56° C | 99% | 1010.7 hPa | 0 mm | - | 0 W/m² | - |
| 1778052302 | 5.56° C | 99% | 1010.6 hPa | 0.51 mm | - | 0 W/m² | - |
| 1778052002 | 5.56° C | 99% | 1010.6 hPa | 1.02 mm | - | 0 W/m² | - |
| 1778051702 | 5.56° C | 99% | 1010.4 hPa | 0.51 mm | - | 0 W/m² | - |
| 1778051403 | 5.56° C | 99% | 1010.8 hPa | 1.02 mm | - | 0 W/m² | - |
| 1778051102 | 5.56° C | 99% | 1011.1 hPa | 1.02 mm | - | 0 W/m² | - |
| 1778050802 | 5.56° C | 99% | 1011.1 hPa | 1.78 mm | - | 0 W/m² | - |
| 1778050502 | 5.56° C | 99% | 1010.8 hPa | 1.02 mm | - | 0 W/m² | - |
| 1778050203 | 5.56° C | 99% | 1011 hPa | 1.02 mm | - | 0 W/m² | - |
| 1778049902 | 5.56° C | 99% | 1011.3 hPa | 1.78 mm | - | 0 W/m² | - |
| 1778049602 | 5.56° C | 98% | 1011 hPa | 2.29 mm | - | 0 W/m² | - |
| 1778049302 | 5.56° C | 98% | 1011.5 hPa | 1.78 mm | - | 0 W/m² | - |
| 1778049002 | 5.56° C | 98% | 1011.7 hPa | 1.78 mm | - | 0 W/m² | - |
| 1778048701 | 5.56° C | 98% | 1011.6 hPa | 2.29 mm | - | 0 W/m² | - |
| 1778048402 | 5.56° C | 99% | 1011.6 hPa | 1.02 mm | - | 0 W/m² | - |
| 1778048102 | 5.56° C | 98% | 1011.3 hPa | 1.02 mm | - | 0 W/m² | - |
| 1778047803 | 5.56° C | 98% | 1011.7 hPa | 1.78 mm | - | 0 W/m² | - |
| 1778047502 | 5.56° C | 98% | 1011.9 hPa | 2.79 mm | - | 0 W/m² | - |
| 1778047202 | 5.56° C | 99% | 1011.4 hPa | 4.06 mm | - | 0 W/m² | - |
| 1778046902 | 5.56° C | 98% | 1011.1 hPa | 3.56 mm | - | 0 W/m² | - |
| 1778046602 | 5.56° C | 98% | 1010.9 hPa | 3.56 mm | - | 0 W/m² | - |
* Rain latest hour (hover to see other rain measurements)
** Current wind speed in m/s (hover to see current wind gust speed)